| time (UTC) | temp F | wind direction | speed knots | gust knots | rain 1hr in | rain 24hr in | rain mn in | humidity % | barometer mb |
| 20260505170012 | 69 | 248 | 1.7 | 8.7 | 0.00 | 0.00 | 0.00 | 35 | 949.3 |
| 20260505164512 | 68 | 6.1 | 10.4 | 0.00 | 0.00 | 0.00 | 36 | 949.3 | |
| 20260505163011 | 68 | 2.6 | 13.0 | 0.00 | 0.00 | 0.00 | 37 | 949.2 | |
| 20260505161528 | 67 | 200 | 0.9 | 10.4 | 0.00 | 0.00 | 0.00 | 39 | 949.3 |
| 20260505153013 | 65 | 254 | 0.9 | 6.1 | 0.00 | 0.00 | 0.00 | 44 | 949.2 |
| 20260505151507 | 64 | 227 | 0.0 | 2.6 | 0.00 | 0.00 | 0.00 | 44 | 949.3 |
| 20260505140106 | 61 | 307 | 0.0 | 0.0 | 0.00 | 0.00 | 0.00 | 48 | 949.0 |
| 20260505130110 | 60 | 108 | 0.0 | 1.7 | 0.00 | 0.00 | 0.00 | 47 | 948.3 |
| 20260505124553 | 60 | 78 | 0.0 | 0.9 | 0.00 | 0.00 | 0.00 | 47 | 948.2 |
| 20260505123054 | 61 | 158 | 0.0 | 3.5 | 0.00 | 0.00 | 0.00 | 47 | 948.3 |
| 20260505121547 | 61 | 204 | 0.0 | 0.9 | 0.00 | 0.00 | 0.00 | 46 | 948.4 |
| 20260505120046 | 62 | 226 | 0.0 | 3.5 | 0.00 | 0.00 | 0.00 | 45 | 948.3 |
| 20260505114543 | 62 | 226 | 0.9 | 4.3 | 0.00 | 0.00 | 0.00 | 44 | 948.3 |
| 20260505113041 | 63 | 162 | 1.7 | 7.8 | 0.00 | 0.00 | 0.00 | 43 | 948.4 |
| 20260505111537 | 64 | 214 | 5.2 | 10.4 | 0.00 | 0.00 | 0.00 | 42 | 948.2 |
| 20260505101535 | 64 | 207 | 1.7 | 5.2 | 0.00 | 0.00 | 0.00 | 41 | 947.9 |
| 20260505100033 | 64 | 207 | 0.0 | 6.1 | 0.00 | 0.00 | 0.00 | 40 | 948.0 |
| 20260505094527 | 65 | 200 | 4.3 | 7.8 | 0.00 | 0.00 | 0.00 | 40 | 948.0 |
| 20260505093028 | 65 | 205 | 3.5 | 10.4 | 0.00 | 0.00 | 0.00 | 39 | 948.0 |
| 20260505091527 | 65 | 141 | 0.9 | 5.2 | 0.00 | 0.00 | 0.00 | 39 | 948.0 |
| 20260505090036 | 65 | 146 | 0.0 | 6.1 | 0.00 | 0.00 | 0.00 | 38 | 948.2 |
| 20260505084521 | 65 | 223 | 2.6 | 6.1 | 0.00 | 0.00 | 0.00 | 38 | 948.3 |
| 20260505083019 | 65 | 243 | 0.0 | 0.9 | 0.00 | 0.00 | 0.00 | 37 | 948.4 |
| 20260505081516 | 66 | 263 | 0.0 | 5.2 | 0.00 | 0.00 | 0.00 | 37 | 948.5 |
| 20260505080035 | 67 | 231 | 0.0 | 0.9 | 0.00 | 0.00 | 0.00 | 36 | 948.5 |
| 20260505074511 | 67 | 197 | 2.6 | 7.0 | 0.00 | 0.00 | 0.00 | 35 | 948.5 |
| 20260505073016 | 68 | 176 | 3.5 | 7.0 | 0.00 | 0.00 | 0.00 | 35 | 948.2 |
| 20260505071505 | 69 | 171 | 6.1 | 14.8 | 0.00 | 0.00 | 0.00 | 34 | 948.4 |
| 20260505070003 | 69 | 129 | 7.8 | 14.8 | 0.00 | 0.00 | 0.00 | 33 | 948.4 |
| 20260505064601 | 70 | 143 | 8.7 | 15.6 | 0.00 | 0.00 | 0.00 | 32 | 948.3 |
| 20260505063059 | 70 | 164 | 7.8 | 15.6 | 0.00 | 0.00 | 0.00 | 31 | 948.1 |
| 20260505061558 | 70 | 163 | 7.8 | 14.8 | 0.00 | 0.00 | 0.00 | 31 | 948.3 |
| 20260505060059 | 70 | 153 | 7.8 | 13.0 | 0.00 | 0.00 | 0.00 | 30 | 948.2 |
| 20260505054558 | 71 | 138 | 7.8 | 16.5 | 0.00 | 0.00 | 0.00 | 30 | 948.1 |
| 20260505053056 | 71 | 132 | 10.4 | 14.8 | 0.00 | 0.00 | 0.00 | 30 | 948.2 |
| 20260505051556 | 71 | 136 | 7.8 | 13.0 | 0.00 | 0.00 | 0.00 | 29 | 948.2 |
| 20260505041554 | 72 | 193 | 10.4 | 17.4 | 0.00 | 0.00 | 0.00 | 26 | 947.7 |
| 20260505034553 | 73 | 153 | 5.2 | 15.6 | 0.00 | 0.00 | 0.00 | 25 | 947.7 |
| 20260505033052 | 73 | 147 | 12.2 | 17.4 | 0.00 | 0.00 | 0.00 | 25 | 947.5 |
| 20260505031558 | 74 | 124 | 7.0 | 15.6 | 0.00 | 0.00 | 0.00 | 25 | 947.3 |
| 20260505030057 | 74 | 150 | 12.2 | 20.0 | 0.00 | 0.00 | 0.00 | 24 | 947.0 |
| 20260505024553 | 74 | 171 | 11.3 | 18.2 | 0.00 | 0.00 | 0.00 | 24 | 946.8 |
| 20260505023051 | 75 | 143 | 10.4 | 18.2 | 0.00 | 0.00 | 0.00 | 26 | 946.7 |
| 20260505021550 | 76 | 147 | 10.4 | 17.4 | 0.00 | 0.00 | 0.00 | 26 | 946.7 |
| 20260505020051 | 76 | 163 | 9.6 | 18.2 | 0.00 | 0.00 | 0.00 | 26 | 946.8 |
| 20260505014602 | 77 | 149 | 7.8 | 13.9 | 0.00 | 0.00 | 0.00 | 26 | 946.8 |
| 20260505013047 | 76 | 182 | 7.8 | 18.2 | 0.00 | 0.00 | 0.00 | 27 | 946.8 |
| 20260505011551 | 77 | 155 | 8.7 | 16.5 | 0.00 | 0.00 | 0.00 | 26 | 946.8 |
| 20260505010045 | 76 | 169 | 8.7 | 13.9 | 0.00 | 0.00 | 0.00 | 27 | 946.9 |
| 20260505004545 | 77 | 170 | 10.4 | 14.8 | 0.00 | 0.00 | 0.00 | 27 | 947.0 |
| 20260505003044 | 77 | 201 | 8.7 | 13.9 | 0.00 | 0.00 | 0.00 | 27 | 947.1 |
| 20260505001546 | 77 | 8.7 | 17.4 | 0.00 | 0.00 | 0.00 | 25 | 947.3 | |
| 20260505000047 | 77 | 7.0 | 16.5 | 0.00 | 0.00 | 0.00 | 26 | 947.2 | |
| 20260504234542 | 77 | 8.7 | 15.6 | 0.00 | 0.00 | 0.00 | 23 | 947.2 | |
| 20260504233042 | 77 | 8.7 | 17.4 | 0.00 | 0.00 | 0.00 | 22 | 947.3 | |
| 20260504231541 | 77 | 179 | 7.8 | 15.6 | 0.00 | 0.00 | 0.00 | 25 | 947.5 |
| 20260504230046 | 77 | 189 | 7.0 | 18.2 | 0.00 | 0.00 | 0.00 | 25 | 947.6 |
| 20260504224546 | 77 | 145 | 8.7 | 18.2 | 0.00 | 0.00 | 0.00 | 28 | 947.7 |
| 20260504223039 | 76 | 136 | 11.3 | 19.1 | 0.00 | 0.00 | 0.00 | 29 | 948.0 |
| 20260504221539 | 76 | 8.7 | 15.6 | 0.00 | 0.00 | 0.00 | 28 | 948.0 | |
| 20260504220037 | 76 | 11.3 | 19.1 | 0.00 | 0.00 | 0.00 | 29 | 948.4 | |
| 20260504214536 | 76 | 12.2 | 18.2 | 0.00 | 0.00 | 0.00 | 27 | 948.5 | |
| 20260504213035 | 76 | 11.3 | 19.1 | 0.00 | 0.00 | 0.00 | 28 | 948.6 | |
| 20260504211535 | 76 | 11.3 | 17.4 | 0.00 | 0.00 | 0.00 | 26 | 948.8 | |
| 20260504210046 | 76 | 9.6 | 18.2 | 0.00 | 0.00 | 0.00 | 27 | 948.9 | |
| 20260504204551 | 76 | 11.3 | 18.2 | 0.00 | 0.00 | 0.00 | 28 | 949.1 | |
| 20260504203034 | 76 | 11.3 | 19.1 | 0.00 | 0.00 | 0.00 | 27 | 949.1 | |
| 20260504201532 | 76 | 13.0 | 20.0 | 0.00 | 0.00 | 0.00 | 28 | 949.1 | |
| 20260504200031 | 75 | 13.0 | 19.1 | 0.00 | 0.00 | 0.00 | 28 | 949.2 | |
| 20260504194531 | 75 | 10.4 | 20.0 | 0.00 | 0.00 | 0.00 | 29 | 949.4 | |
| 20260504193030 | 74 | 165 | 11.3 | 20.0 | 0.00 | 0.00 | 0.00 | 30 | 949.4 |
| 20260504191531 | 74 | 178 | 11.3 | 18.2 | 0.00 | 0.00 | 0.00 | 30 | 949.5 |
| 20260504190028 | 73 | 182 | 11.3 | 20.9 | 0.00 | 0.00 | 0.00 | 31 | 949.7 |
| 20260504184528 | 73 | 221 | 9.6 | 18.2 | 0.00 | 0.00 | 0.00 | 32 | 949.6 |
| 20260504183027 | 72 | 186 | 10.4 | 20.0 | 0.00 | 0.00 | 0.00 | 33 | 949.8 |
| 20260504181527 | 73 | 200 | 8.7 | 20.0 | 0.00 | 0.00 | 0.00 | 33 | 950.0 |
| 20260504180025 | 73 | 197 | 11.3 | 19.1 | 0.00 | 0.00 | 0.00 | 33 | 949.8 |
| 20260504174524 | 72 | 8.7 | 16.5 | 0.00 | 0.00 | 0.00 | 33 | 949.9 | |
| 20260504173023 | 72 | 11.3 | 18.2 | 0.00 | 0.00 | 0.00 | 33 | 949.5 | |
| 20260504171522 | 72 | 10.4 | 18.2 | 0.00 | 0.00 | 0.00 | 32 | 949.5 |